Observations for Trim Patrick St
| Time | AQI | Temp °C | Hum % | Pres Pa | CO μg/m³ | H₂S μg/m³ | NO μg/m³ | NO₂ μg/m³ | O₃ μg/m³ | SO₂ μg/m³ | PM1 μg/m³ | PM2.5 μg/m³ | PM10 μg/m³ |
|---|---|---|---|---|---|---|---|---|---|---|---|---|---|
| Saturday 8 August 2026 | |||||||||||||
| 03:54 | 1 | 14.9 | 73 | 38,460 | 0.17 | 2.96 | 3.2 | 14.23 | 20.99 | 0 | 4.57 | 8.54 | 9.4 |
| 03:53 | 1 | 14.9 | 72 | 38,460 | 0.17 | 3.85 | 3.19 | 24.13 | 26.2 | 0 | 4.57 | 8.58 | 9.44 |
| 03:52 | 1 | 14.9 | 72 | 38,460 | 0.17 | 3.38 | 3.22 | 27.99 | 27.14 | 0 | 4.57 | 7.91 | 8.71 |
| 03:51 | 1 | 15 | 71 | 38,460 | 0.17 | 2.91 | 3.16 | 14.37 | 18.84 | 0 | 4.57 | 7.96 | 8.75 |
| 03:50 | 1 | 15 | 68 | 38,460 | 0.17 | 3.93 | 3.16 | 30.82 | 28.31 | 0 | 4.57 | 8.2 | 9.02 |
| 03:49 | 1 | 15 | 71 | 38,460 | 0.18 | 2.6 | 3.17 | 15 | 21.29 | 0 | 2.86 | 7.94 | 8.74 |
| 03:48 | 1 | 15 | 72 | 38,460 | 0.17 | 2.89 | 3.19 | 27.91 | 18.58 | 0 | 3.71 | 8.64 | 9.5 |
| 03:47 | 1 | 15 | 72 | 38,460 | 0.18 | 0 | 2.87 | 13.48 | 18.53 | 0 | 3.71 | 8.58 | 9.44 |
| 03:46 | 1 | 15 | 72 | 38,460 | 0.18 | 0.31 | 2.85 | 12.74 | 22.76 | 0 | 3.71 | 7.89 | 8.67 |
| 03:45 | 1 | 15 | 72 | 38,460 | 0.19 | 0.44 | 2.77 | 17.34 | 16.45 | 0 | 2.86 | 7.15 | 7.86 |
| 03:44 | 1 | 15 | 72 | 38,460 | 0.18 | 0.39 | 2.86 | 25.82 | 15.23 | 0 | 4.57 | 8.6 | 9.46 |
| 03:43 | 1 | 15 | 72 | 38,460 | 0.21 | 1.01 | 2.9 | 66.9 | 0 | 0 | 5.43 | 8.61 | 9.47 |
| 03:42 | 1 | 15 | 71 | 38,460 | 0.18 | 0.57 | 3.18 | 19.99 | 18.71 | 0 | 3.71 | 8.65 | 9.52 |
| 03:41 | 1 | 15.1 | 71 | 38,460 | 0.18 | 0.44 | 3.17 | 11.92 | 23.82 | 0 | 3.71 | 7.96 | 8.75 |
| 03:40 | 1 | 15.1 | 72 | 38,460 | 0.18 | 1.38 | 3.16 | 16.7 | 23.74 | 0 | 4.57 | 8.65 | 9.51 |
| 03:39 | 1 | 15.1 | 72 | 38,460 | 0.19 | 0.78 | 3.16 | 12.48 | 22.12 | 0 | 3.71 | 7.9 | 8.69 |
| 03:38 | 1 | 15.1 | 72 | 38,460 | 0.19 | 1.74 | 3.16 | 17.89 | 19.49 | 0 | 5.43 | 9.36 | 10.29 |
| 03:37 | 1 | 15.1 | 71 | 38,460 | 0.18 | 0.26 | 3.17 | 16.63 | 20.24 | 0 | 4.57 | 9.39 | 10.33 |
| 03:36 | 1 | 15.1 | 72 | 38,460 | 0.19 | 0.18 | 3.17 | 13.49 | 20.8 | 0 | 3.71 | 7.91 | 8.71 |
| 03:35 | 1 | 15.1 | 72 | 38,460 | 0.2 | 0 | 3.17 | 11.79 | 18.83 | 0 | 5.43 | 9.36 | 10.29 |